Regional Weather Roundup
Issued by NWS

Home | Current Version | Previous Version | Graphics & Text | Print | Product List | Glossary On
Versions: 1 2 3 4 5 6 7 8 9 10 11 12 13 14 15 16 17 18 19 20 21 22 23 24 25 26 27 28 29 30 31 32 33 34 35 36 37 38 39 40 41 42 43 44 45 46 47 48 49 50
000
ASUS45 KBOI 270810
RWRID

IDAHO REGIONAL WEATHER ROUNDUP
NATIONAL WEATHER SERVICE BOISE ID
200 AM MDT WED JUL 27 2016

NOTE: "FAIR" INDICATES FEW OR NO CLOUDS BELOW 12000 FEET
WITH NO SIGNIFICANT WEATHER AND/OR OBSTRUCTIONS TO VISIBILITY

IDZ012-014-270900-
SOUTHWEST IDAHO


CITY           SKY/WX    TMP DP  RH WIND       PRES   REMARKS
BOISE          CLEAR     73  49  42 S5        29.97R
CALDWELL       CLEAR     74  52  46 SW8       29.95S
MOUNTAIN HOME  CLEAR     75  39  26 W7        29.97R
$$

IDZ016-017-270900-
SOUTHCENTRAL IDAHO


CITY           SKY/WX    TMP DP  RH WIND       PRES   REMARKS
BURLEY         CLEAR     68  44  42 NE9       30.06S
JEROME         CLEAR     62  43  49 E8        30.06S
TWIN FALLS     CLEAR     71  36  27 S10       30.06S
$$

IDZ019>023-270900-
SOUTHEAST IDAHO


CITY           SKY/WX    TMP DP  RH WIND       PRES   REMARKS
IDAHO FALLS    CLEAR     56  45  66 N9        30.12F
POCATELLO      CLEAR     58  45  62 W5        30.11S
REXBURG        CLEAR     56  46  69 N6        30.13F
$$

IDZ006-010-011-018-031-032-270900-
CENTRAL IDAHO MOUNTAINS


CITY           SKY/WX    TMP DP  RH WIND       PRES   REMARKS
MCCALL         CLEAR     65  49  56 N6        30.15S
HAILEY         CLEAR     61  39  44 NW10      30.19S
STANLEY          N/A     52  36  54 S5        30.28S
SALMON         CLEAR     55  46  71 CALM      30.13F
CHALLIS        CLEAR     57  41  55 CALM      30.18S
$$

IDZ002-004-006-007-026-270900-
NORTHERN IDAHO


CITY           SKY/WX    TMP DP  RH WIND       PRES   REMARKS
LEWISTON       PTCLDY    75  50  41 S5        29.95S
LOWELL           N/A     65  57  75 N3        30.01R
COEUR D`ALENE  PTCLDY    68  55  64 NE13      30.01S
MULLAN PASS    PTCLDY    60  44  55 N5        30.24F
$$



USA.gov is the U.S. government's official web portal to all federal, state and local government web resources and services.